Ft. Stewart, GA

5:10 AM EST on December 18, 2017 (GMT -0500)
Wright Army Air Field

Weather History for KLHW - February, 2013

Change the Weather History Date:

Monday, February 18, 2013

  Actual Average Record
Temperature  
Mean Temperature 40 °F -  
Max Temperature 57 °F 64 °F 82 °F (1975)
Min Temperature 23 °F 43 °F 23 °F (2013)
Degree Days  
Heating Degree Days 25    
Moisture  
Dew Point 25 °F    
Average Humidity 60    
Maximum Humidity 90    
Minimum Humidity 23    
Precipitation  
Precipitation 0.00 in - - ()
Sea Level Pressure  
Sea Level Pressure 30.36 in    
Wind  
Wind Speed 2 mph (ESE)    
Max Wind Speed 13 mph    
Max Gust Speed 17 mph    
Visibility 10 miles    
Events      
Averages and records for this station are not official NWS values.
T = Trace of Precipitation, MM = Missing Value Source: NWS Daily Summary

Daily Weather History Graph

Daily Weather History Graph

Search for Another Location

Airport or City:

Trip Planner

Search our weather history database for the weather conditions in past years. The results will help you decide how hot, cold, wet, or windy it might be!

Date:

Astronomy

Feb. 18, 2013 Rise Set
Actual Time 7:05 AM EST 6:15 PM EST
Civil Twilight 6:40 AM EST 6:40 PM EST
Nautical Twilight 6:11 AM EST 7:08 PM EST
Astronomical Twilight 5:43 AM EST 7:37 PM EST
Moon 12:10 PM EST 1:34 AM EST
Length of Visible Light 12h 00m
Length of Day
11h 10m
First Quarter, 58% of the Moon is Illuminated
Feb 18
First Quarter
Feb 25
Full
Mar 4
Last Quarter
Mar 11
New
Mar 19
First Quarter

Hourly Weather History & Observations

Time (EST) Temp. Windchill Dew Point Humidity Pressure Visibility Wind Dir Wind Speed Gust Speed Precip Events Conditions
12:58 AM 27.9 °F - 23.0 °F 82% 30.36 in 10.0 mi Calm Calm - N/A   Clear
1:59 AM 27.7 °F - 22.1 °F 80% 30.35 in 10.0 mi Calm Calm - N/A   Clear
2:58 AM 26.6 °F - 22.6 °F 85% 30.36 in 10.0 mi Calm Calm - N/A   Clear
3:58 AM 26.6 °F - 22.5 °F 84% 30.35 in 10.0 mi Calm Calm - N/A   Clear
4:58 AM 26.1 °F - 21.4 °F 82% 30.37 in 10.0 mi Calm Calm - N/A   Clear
5:58 AM 25.0 °F - 21.7 °F 87% 30.39 in 10.0 mi North 1.2 mph - N/A   Clear
6:58 AM 23.9 °F - 21.4 °F 90% 30.40 in 10.0 mi Calm Calm - N/A   Clear
7:58 AM 26.8 °F - 23.4 °F 87% 30.41 in 10.0 mi Calm Calm - N/A   Clear
8:58 AM 35.8 °F - 27.5 °F 72% 30.42 in 10.0 mi Calm Calm - N/A   Clear
9:58 AM 45.5 °F - 24.3 °F 43% 30.43 in 10.0 mi Calm Calm - N/A   Clear
10:58 AM 51.6 °F - 15.4 °F 24% 30.44 in 10.0 mi Calm Calm - N/A   Clear
11:58 AM 53.2 °F - 16.2 °F 23% 30.43 in 10.0 mi Variable 5.8 mph - N/A   Clear
12:58 PM 55.9 °F - 18.5 °F 23% 30.39 in 10.0 mi Variable 4.6 mph - N/A   Clear
1:58 PM 56.5 °F - 19.0 °F 23% 30.36 in 10.0 mi East 6.9 mph - N/A   Clear
2:58 PM 57.4 °F - 20.1 °F 24% 30.35 in 10.0 mi ESE 12.7 mph - N/A   Clear
3:58 PM 55.8 °F - 21.2 °F 26% 30.35 in 10.0 mi East 12.7 mph 17.3 mph N/A   Clear
4:58 PM 54.9 °F - 23.5 °F 30% 30.34 in 10.0 mi ESE 9.2 mph - N/A   Clear
5:58 PM 52.0 °F - 30.2 °F 43% 30.34 in 10.0 mi ESE 8.1 mph - N/A   Clear
6:58 PM 47.5 °F - 31.3 °F 53% 30.33 in 10.0 mi SE 5.8 mph - N/A   Clear
7:58 PM 44.6 °F 42.2 °F 31.5 °F 60% 30.32 in 10.0 mi ESE 4.6 mph - N/A   Clear
8:58 PM 42.6 °F 40.9 °F 32.2 °F 67% 30.30 in 10.0 mi ESE 3.5 mph - N/A   Clear
9:58 PM 39.2 °F - 34.2 °F 82% 30.29 in 10.0 mi Calm Calm - N/A   Clear
10:58 PM 37.2 °F - 33.8 °F 87% 30.27 in 10.0 mi Calm Calm - N/A   Clear
11:58 PM 36.9 °F - 33.6 °F 88% 30.26 in 10.0 mi Calm Calm - N/A   Clear